Regional Weather Roundup
Issued by NWS Cleveland, OH

Home | Current Version | Previous Version | Graphics & Text | Print | Product List | Glossary On
Versions: 1 2 3 4 5 6 7 8 9 10 11 12 13 14 15 16 17 18 19 20 21 22 23 24 25 26 27 28 29 30 31 32 33 34 35 36 37 38 39 40 41 42 43 44 45 46 47 48 49 50
000
ASUS41 KCLE 301312
RWRCLE
OHIO REGIONAL WEATHER ROUNDUP
NATIONAL WEATHER SERVICE WILMINGTON, OH
900 AM EDT TUE AUG 30 2016

NOTE: "FAIR" INDICATES FEW OR NO CLOUDS BELOW 12,000 FEET WITH NO
SIGNIFICANT WEATHER AND/OR OBSTRUCTIONS TO VISIBILITY.

OHZ001>008-015>018-024>027-034-035-043-044-301400-
   NORTHWEST OHIO

CITY           SKY/WX    TMP DP  RH WIND       PRES   REMARKS
DEFIANCE       FAIR      71  64  78 CALM      30.19S
FINDLAY        FAIR      69  61  75 S3        30.18S
TOLEDO EXPRESS FAIR      69  66  90 CALM      30.19S
TOLEDO EXEC    FAIR      69  65  86 CALM      30.19S
LIMA           FAIR      71  64  78 VRB3      30.19S
$$

OHZ009>014-019>023-028>033-038-089-301400-
   NORTHEAST OHIO

CITY           SKY/WX    TMP DP  RH WIND       PRES   REMARKS
CLE-HOPKINS    FAIR      72  59  63 CALM      30.20S
CLE-LAKEFRONT  FAIR      72  59  63 SE10      30.17S
CUY CO. ARPT   SUNNY     73  63  68 S5        30.20R
LORAIN-ELYRIA  FAIR      65  60  84 SW3       30.20S
ASHTABULA      FAIR      66  64  93 CALM      30.21S
AKRON-CANTON   FAIR      70  57  63 SE6       30.20S
WOOSTER        FAIR      66  60  81 CALM      30.21S
MANSFIELD      FAIR      70  57  63 SE6       30.20F
YOUNGSTOWN     FAIR      66  60  81 E5        30.19F
$$

OHZ042-051>053-060>062-070>072-077>081-301400-
  SOUTHWEST OHIO

CITY           SKY/WX    TMP DP  RH WIND       PRES   REMARKS
CINC-COVINGTON FAIR      75  69  81 NE5       30.18R
CINC-LUNKEN    FAIR      73  69  87 NE5       30.17R
HAMILTON       FAIR      74  67  78 CALM      30.19R
DAYTON         FAIR      72  63  73 CALM      30.20S
WRIGHT-PAT AFB MOSUNNY   70  65  82 NE2       30.18S
DAYTON GENERAL FAIR      72  63  73 E3        30.18S
WILMINGTON     FAIR      69  64  84 E3        30.19R
$$

OHZ036-037-039>041-045>050-054>059-063>069-073>076-082>088-301400-
  CENTRAL AND SOUTHEAST OHIO

CITY           SKY/WX    TMP DP  RH WIND       PRES   REMARKS
COLUMBUS       FAIR      71  61  70 CALM      30.18R
OSU AIRPORT    FAIR      71  62  73 CALM      30.18S
BOLTON FIELD   SUNNY     70  64  83 CALM      30.19S
RICKENBACK AFB FAIR      68  63  84 CALM      30.18R
NEWARK         FAIR      69  61  75 CALM      30.19S
MARION         FAIR      68  58  70 S5        30.19F
LANCASTER      FAIR      69  64  84 CALM      30.19R
ZANESVILLE     FAIR      67  61  81 CALM      30.19R
NEW PHILLY     FAIR      68  59  73 CALM      30.19F
$$




USA.gov is the U.S. government's official web portal to all federal, state and local government web resources and services.